{"data":{"norad_id":58736,"epoch":"2026-05-25T01:05:55.836096Z","epoch_age_seconds":67538,"freshness":"FRESH","line1":"1 58736U 24005J   26145.04578514  .00004718  00000+0  18068-3 0  9997","line2":"2 58736  43.0028 148.3327 0001355 278.5496  81.5202 15.27611838132164","mean_motion":15.27611838,"eccentricity":0.0001355,"inclination_deg":43.0028,"raan_deg":148.3327,"arg_perigee_deg":278.5496,"mean_anomaly_deg":81.5202,"bstar":0.00018068,"rev_number":13216,"period_min":94.264784036061,"perigee_km":482.02408547135,"apogee_km":483.88344106819,"semimajor_km":6861.0907632698,"source":"CELESTRAK","updated_at":"2026-05-25T13:38:18.720341Z"}}